TimeEDT,TemperatureF,Dew PointF,Humidity,Sea Level PressureIn,VisibilityMPH,Wind Direction,Wind SpeedMPH,Gust SpeedMPH,PrecipitationIn,Events,Conditions,WindDirDegrees,DateUTC
12:15 AM,54.5,50.4,86,30.03,10.0,Calm,Calm,-,N/A,,Clear,0,2013-08-06 04:15:00
12:35 AM,54.5,50.9,88,30.03,10.0,Calm,Calm,-,N/A,,Clear,0,2013-08-06 04:35:00
12:55 AM,54.5,50.9,88,30.03,10.0,Calm,Calm,-,N/A,,Clear,0,2013-08-06 04:55:00
1:15 AM,54.5,50.9,88,30.03,10.0,Calm,Calm,-,N/A,,Clear,0,2013-08-06 05:15:00
1:35 AM,54.5,50.9,88,30.04,10.0,Calm,Calm,-,N/A,,Clear,0,2013-08-06 05:35:00
1:55 AM,54.5,50.9,88,30.04,10.0,SE,3.5,-,N/A,,Clear,140,2013-08-06 05:55:00
2:15 AM,54.5,50.9,88,30.03,10.0,Calm,Calm,-,N/A,,Clear,0,2013-08-06 06:15:00
2:35 AM,54.5,50.9,88,30.04,10.0,SE,3.5,-,N/A,,Clear,130,2013-08-06 06:35:00
2:55 AM,54.5,50.7,87,30.04,10.0,SE,3.5,-,N/A,,Clear,140,2013-08-06 06:55:00
3:15 AM,54.5,50.9,88,30.04,10.0,Calm,Calm,-,N/A,,Clear,0,2013-08-06 07:15:00
3:35 AM,52.0,48.4,88,30.05,10.0,Calm,Calm,-,N/A,,Clear,0,2013-08-06 07:35:00
3:55 AM,51.8,48.4,88,30.05,10.0,Calm,Calm,-,N/A,,Clear,0,2013-08-06 07:55:00
4:15 AM,51.8,48.6,89,30.05,10.0,Calm,Calm,-,N/A,,Clear,0,2013-08-06 08:15:00
4:35 AM,53.8,50.7,89,30.05,10.0,SSE,4.6,-,N/A,,Clear,150,2013-08-06 08:35:00
4:55 AM,54.0,50.7,89,30.06,10.0,SSE,4.6,-,N/A,,Clear,160,2013-08-06 08:55:00
5:15 AM,53.8,50.4,88,30.06,10.0,SE,3.5,-,N/A,,Clear,140,2013-08-06 09:15:00
5:35 AM,51.8,48.4,88,30.06,10.0,SE,3.5,-,N/A,,Clear,140,2013-08-06 09:35:00
5:55 AM,52.0,48.6,88,30.06,10.0,SSE,3.5,-,N/A,,Clear,150,2013-08-06 09:55:00
6:15 AM,52.5,48.9,88,30.07,10.0,SSE,3.5,-,N/A,,Clear,150,2013-08-06 10:15:00
6:35 AM,54.5,50.7,87,30.07,10.0,SSE,4.6,-,N/A,,Clear,150,2013-08-06 10:35:00
6:55 AM,54.5,50.0,85,30.08,10.0,SSE,4.6,-,N/A,,Clear,150,2013-08-06 10:55:00
7:15 AM,54.5,50.0,85,30.08,10.0,SSE,4.6,-,N/A,,Clear,160,2013-08-06 11:15:00
7:35 AM,55.4,50.9,85,30.09,10.0,SSE,4.6,-,N/A,,Clear,150,2013-08-06 11:35:00
7:55 AM,59.2,53.2,81,30.09,10.0,SSE,4.6,-,N/A,,Clear,160,2013-08-06 11:55:00
8:15 AM,61.0,50.4,68,30.10,10.0,South,3.5,-,N/A,,Clear,180,2013-08-06 12:15:00
8:35 AM,63.0,50.5,64,30.10,10.0,South,4.6,-,N/A,,Clear,170,2013-08-06 12:35:00
8:55 AM,66.2,51.1,58,30.10,10.0,South,5.8,-,N/A,,Clear,170,2013-08-06 12:55:00
9:15 AM,69.3,52.5,55,30.10,10.0,South,5.8,-,N/A,,Clear,190,2013-08-06 13:15:00
9:35 AM,69.4,50.9,52,30.10,10.0,South,6.9,-,N/A,,Clear,190,2013-08-06 13:35:00
9:55 AM,69.4,49.3,49,30.10,10.0,SSW,5.8,-,N/A,,Clear,200,2013-08-06 13:55:00
10:15 AM,72.0,50.5,47,30.10,10.0,South,5.8,-,N/A,,Clear,170,2013-08-06 14:15:00
10:35 AM,73.2,51.3,46,30.10,10.0,SSW,5.8,-,N/A,,Clear,200,2013-08-06 14:35:00
10:55 AM,74.5,52.0,45,30.10,10.0,SW,4.6,-,N/A,,Clear,220,2013-08-06 14:55:00
11:15 AM,74.5,50.9,43,30.10,10.0,SSE,5.8,-,N/A,,Clear,160,2013-08-06 15:15:00
11:35 AM,74.5,47.8,39,30.10,10.0,South,4.6,-,N/A,,Clear,180,2013-08-06 15:35:00
11:55 AM,74.8,47.3,38,30.10,10.0,South,3.5,-,N/A,,Clear,190,2013-08-06 15:55:00
12:15 PM,77.0,47.7,35,30.10,10.0,South,5.8,-,N/A,,Clear,190,2013-08-06 16:15:00
12:35 PM,77.0,47.7,35,30.10,10.0,SW,3.5,-,N/A,,Clear,230,2013-08-06 16:35:00
12:55 PM,77.0,49.5,38,30.10,10.0,WSW,6.9,-,N/A,,Clear,250,2013-08-06 16:55:00
1:15 PM,77.0,48.7,37,30.10,10.0,SSW,5.8,-,N/A,,Clear,200,2013-08-06 17:15:00
1:35 PM,77.0,46.4,34,30.09,10.0,SSW,6.9,-,N/A,,Clear,210,2013-08-06 17:35:00
1:55 PM,77.2,46.9,34,30.09,10.0,WSW,6.9,-,N/A,,Clear,240,2013-08-06 17:55:00
2:15 PM,77.2,45.5,32,30.09,10.0,SW,5.8,-,N/A,,Clear,220,2013-08-06 18:15:00
2:35 PM,79.7,47.5,32,30.08,10.0,SSW,5.8,-,N/A,,Clear,210,2013-08-06 18:35:00
2:55 PM,79.7,47.7,32,30.08,10.0,SSW,4.6,-,N/A,,Clear,210,2013-08-06 18:55:00
3:15 PM,79.7,48.4,33,30.08,10.0,SSW,4.6,-,N/A,,Clear,200,2013-08-06 19:15:00
3:35 PM,79.7,49.3,34,30.08,10.0,SSE,6.9,-,N/A,,Clear,160,2013-08-06 19:35:00
3:55 PM,79.7,46.4,31,30.08,10.0,South,5.8,-,N/A,,Clear,190,2013-08-06 19:55:00
4:15 PM,77.5,43.7,30,30.08,10.0,SSW,5.8,-,N/A,,Clear,210,2013-08-06 20:15:00
4:35 PM,77.0,45.7,33,30.09,10.0,SW,3.5,-,N/A,,Clear,230,2013-08-06 20:35:00
4:55 PM,74.5,49.6,42,30.09,10.0,SSW,4.6,-,N/A,,Clear,200,2013-08-06 20:55:00
5:15 PM,74.5,52.0,45,30.09,10.0,SSW,5.8,-,N/A,,Clear,210,2013-08-06 21:15:00
5:35 PM,74.5,50.5,43,30.09,10.0,SSW,5.8,-,N/A,,Clear,200,2013-08-06 21:35:00
5:55 PM,74.5,49.6,42,30.08,10.0,SSW,3.5,-,N/A,,Clear,200,2013-08-06 21:55:00
6:15 PM,74.5,50.7,43,30.08,10.0,SSE,3.5,-,N/A,,Clear,160,2013-08-06 22:15:00
6:35 PM,77.0,51.3,40,30.08,10.0,Calm,Calm,-,N/A,,Clear,0,2013-08-06 22:35:00
6:55 PM,77.0,52.3,42,30.08,10.0,Calm,Calm,-,N/A,,Clear,0,2013-08-06 22:55:00
7:15 PM,75.2,51.4,43,30.08,10.0,Calm,Calm,-,N/A,,Clear,0,2013-08-06 23:15:00
7:35 PM,74.5,51.6,45,30.08,10.0,South,3.5,-,N/A,,Clear,170,2013-08-06 23:35:00
7:55 PM,70.2,51.3,51,30.08,10.0,Calm,Calm,-,N/A,,Clear,0,2013-08-06 23:55:00
8:15 PM,69.4,55.6,61,30.08,10.0,Calm,Calm,-,N/A,,Clear,0,2013-08-07 00:15:00
8:35 PM,64.6,55.2,72,30.08,10.0,Calm,Calm,-,N/A,,Clear,0,2013-08-07 00:35:00
8:55 PM,63.7,54.9,73,30.08,10.0,Calm,Calm,-,N/A,,Clear,0,2013-08-07 00:55:00
9:15 PM,64.4,52.2,64,30.08,10.0,Calm,Calm,-,N/A,,Clear,0,2013-08-07 01:15:00
9:35 PM,64.8,51.3,62,30.08,10.0,SE,3.5,-,N/A,,Clear,130,2013-08-07 01:35:00
9:55 PM,63.0,51.4,66,30.09,10.0,Calm,Calm,-,N/A,,Clear,0,2013-08-07 01:55:00
10:15 PM,61.9,52.0,70,30.09,10.0,Calm,Calm,-,N/A,,Clear,0,2013-08-07 02:15:00
10:35 PM,61.7,52.2,71,30.08,10.0,SE,3.5,-,N/A,,Clear,130,2013-08-07 02:35:00
10:55 PM,60.8,51.8,72,30.09,10.0,SE,4.6,-,N/A,,Clear,140,2013-08-07 02:55:00
11:15 PM,60.8,51.8,72,30.08,10.0,SE,4.6,-,N/A,,Clear,140,2013-08-07 03:15:00
11:35 PM,60.8,51.8,72,30.08,10.0,SE,4.6,-,N/A,,Clear,130,2013-08-07 03:35:00
11:55 PM,60.6,52.0,73,30.08,10.0,SE,3.5,-,N/A,,Clear,130,2013-08-07 03:55:00